Regional Weather Roundup
Issued by NWS

Home | Current Version | Previous Version | Graphics & Text | Print | Product List | Glossary On
Versions: 1 2 3 4 5 6 7 8 9 10 11 12 13 14 15 16 17 18 19 20 21 22 23 24 25 26 27 28 29 30 31 32 33 34 35 36 37 38 39 40 41 42 43 44 45 46 47 48 49 50
362
ASUS43 KLOT 270603
RWRIL

ILLINOIS REGIONAL WEATHER ROUNDUP
NATIONAL WEATHER SERVICE CHICAGO/ROMEOVILLE IL
1200 AM CST MON FEB 27 2017

NOTE: "FAIR" INDICATES FEW OR NO CLOUDS BELOW 12,000 FEET WITH NO
SIGNIFICANT WEATHER AND/OR OBSTRUCTIONS TO VISIBILITY.

* THESE STATIONS ARE NOT UNDER NWS QUALITY CONTROL. THEY ALSO MAY NOT
  REPORT WEATHER SUCH AS PRECIPITATION OR FOG.

ILZ001-002-007-009-015-016-024-270700-
NORTHWEST ILLINOIS

CITY           SKY/WX    TMP DP  RH WIND       PRES   REMARKS
MOLINE         PTCLDY    31  28  89 SE3       30.06S
6HR MIN TEMP:  31; 6HR MAX TEMP:  46;

STERLING*      MOCLDY    33  31  92 SW5       30.07R WCI  29
$$

ILZ003-004-008-010-011-017-018-270700-
NORTH CENTRAL ILLINOIS

CITY           SKY/WX    TMP DP  RH WIND       PRES   REMARKS
ROCKFORD       PTCLDY    32  27  81 CALM      30.08R
6HR MIN TEMP:  32; 6HR MAX TEMP:  44;

FREEPORT*      MOCLDY    32  24  74 CALM      30.08R
ROCHELLE*      MOCLDY    32  31  96 SW5       30.07R WCI  27
DE KALB*       PTCLDY    35  31  87 SW5       30.07R WCI  30
PERU*          PTCLDY    37  24  59 SW12      30.08S WCI  29
$$

ILZ005-006-012>014-019>023-270700-
NORTHEAST ILLINOIS

CITY           SKY/WX    TMP DP  RH WIND       PRES   REMARKS
CHICAGO-OHARE  PTCLDY    38  25  59 SW7       30.05S WCI  33
6HR MIN TEMP:  38; 6HR MAX TEMP:  47; 6HR PCP: TRACE;

CHICAGO-MIDWAY PTCLDY    38  24  57 SW8       30.07S WCI  32
6HR MIN TEMP:  38; 6HR MAX TEMP:  46;

AURORA         CLEAR     35  25  66 SW5       30.07R WCI  31
6HR MIN TEMP:  35; 6HR MAX TEMP:  43;

LANSING*       CLEAR     32  27  83 SW7       30.10R WCI  26
JOLIET*        MOCLDY    39  27  63 SW5       30.09S
WAUKEGAN       PTCLDY    37  31  78 VRB6      30.04R WCI  32
6HR MIN TEMP:  35; 6HR MAX TEMP:  40;

DUPAGE AIRPORT CLEAR     33  24  69 SW6       30.06R WCI  28
6HR MIN TEMP:  33; 6HR MAX TEMP:  45; 6HR PCP: TRACE;

KANKAKEE*      CLEAR     31  24  76 SW8       30.12R WCI  24
WHEELING       CLEAR     37  27  67 SW5       30.07R WCI  33
6HR MIN TEMP:  37; 6HR MAX TEMP:  45;

MORRIS*        PTCLDY    35  26  68 SW6       30.08R WCI  30
ROMEOVILLE*    CLOUDY    36  29  75 SW9       30.08R WCI  29
NORTHERLY ISL    N/A     39  24  55 S7          N/A  WCI  34
$$

LMZ740>746-270700-
SOUTHERN LAKE MICHIGAN

STATION/POSITION SKY/WX   TEMP    WIND        PRES    VSBY  WAVE
                          AIR SEA DIR/SP/G                  HT/PER
                          (F)     (DEG/KT/KT) (MB)    (MI)  (FT/S)
HARRISON CRIB              42     220/ 18/ 21   N/A
BURNHAM HARBOR             39     220/  5/  9   N/A
CALUMET HARBOR             38     210/ 11/ 15 1017.8R
BURNS HARBOR               38     200/ 13/ 17 1019.0S
MICHIGAN CITY              39     190/ 19/ 23   N/A
$$

ILZ025>027-034>036-040-047-049-050-058-095>099-270700-
WEST-CENTRAL ILLINOIS

CITY           SKY/WX    TMP DP  RH WIND       PRES   REMARKS
QUINCY         MOCLDY    34  31  88 S6        30.08S WCI  29
GALESBURG*     CLEAR     32  26  77 S7        30.08  WCI  26
MACOMB*        CLEAR     33  27  80 S7        30.10S WCI  26
JACKSONVILLE*  CLOUDY    38  32  81 S6        30.10S WCI  33
PITTSFIELD*    CLOUDY    38  34  84 S5        30.10S WCI  35
$$

ILZ028>032-037-038-041>044-048-051>054-059>061-270700-
CENTRAL ILLINOIS

CITY           SKY/WX    TMP DP  RH WIND       PRES   REMARKS
PONTIAC        PTCLDY    36  26  67 SW10      30.11R WCI  28
BLOOMINGTON    CLEAR     33  25  72 SW9       30.12R WCI  25
DECATUR        MOCLDY    37  28  70 SW9       30.13R WCI  30
PEORIA         CLEAR     32  24  72 S7        30.11R WCI  26
6HR MIN TEMP:  31; 6HR MAX TEMP:  43;

LACON*         PTCLDY    34  25  68 SW3       30.09S
LINCOLN*       CLEAR     29  26  88 S5        30.13R WCI  24
SPRINGFIELD    CLOUDY    38  31  76 S6        30.12S WCI  33
6HR MIN TEMP:  38; 6HR MAX TEMP:  44;

TAYLORVILLE    CLEAR     34  30  85 S6        30.13S WCI  29
6HR MIN TEMP:  34; 6HR MAX TEMP:  42;

$$

ILZ033-039-045-046-055>057-062-063-270700-
EAST-CENTRAL ILLINOIS

CITY           SKY/WX    TMP DP  RH WIND       PRES   REMARKS
CHAMPAIGN      MOCLDY    30  21  69 S8        30.13R WCI  22
RANTOUL*       CLEAR     34  24  68 CALM      30.13R
MATTOON        CLOUDY    41  34  76 SW10      30.14R
PARIS*         CLOUDY    41  30  66 SW10      30.16R
$$

ILZ079-100>102-270700-
SOUTHWEST ILLINOIS

CITY           SKY/WX    TMP DP  RH WIND       PRES   REMARKS
ALTON          CLOUDY    40  35  83 SE5       30.12F
BELLEVILLE     CLOUDY    41  38  90 NE3       30.10F
CAHOKIA*       CLOUDY    41  36  82 CALM      30.11F
SPARTA*        CLOUDY    42  33  71 SE5       30.13F
$$

ILZ064>066-069>071-074>076-080>082-084>086-088>090-092>094-270700-
SOUTH-CENTRAL ILLINOIS

CITY           SKY/WX    TMP DP  RH WIND       PRES   REMARKS
CARBONDALE     CLOUDY    42  33  70 NE3       30.13F
6HR MIN TEMP:  42; 6HR MAX TEMP:  46; 6HR PCP: TRACE;

CAIRO*         CLOUDY    48  35  61 S5        30.15S
EFFINGHAM*     LGT RAIN  42  36  79 SW5       30.16F
MARION         CLOUDY    45  25  45 CALM      30.15S
MT. VERNON     LGT RAIN  43  35  73 S8        30.15S
CENTRALIA*     CLOUDY    42  36  79 SE3       30.13S
SALEM*         CLOUDY    43  36  74 CALM      30.14F
METROPOLIS*    CLOUDY    49  32  50 CALM      30.15S
$$

ILZ067-068-072-073-078-083-087-091-270700-
SOUTHEAST ILLINOIS

CITY           SKY/WX    TMP DP  RH WIND       PRES   REMARKS
LAWRENCEVILLE  CLOUDY    45  32  60 W7        30.17S
FLORA*         CLOUDY    44  35  71 CALM      30.16F
FAIRFIELD*     CLOUDY    42  36  79 CALM      30.15R
HARRISBURG*    CLOUDY    44  34  69 CALM      30.16R
ROBINSON*      CLOUDY    42  34  73 SW7       30.18R
CARMI*         CLOUDY    42  35  73 E5        30.15S
$$

ABBREVIATIONS USED IN REMARKS
   TC - TEMPERATURE IN CELSIUS
  WCI - WIND CHILL INDEX
   HX - HEAT INDEX
  VSB - VISIBILITY
$$





USA.gov is the U.S. government's official web portal to all federal, state and local government web resources and services.